Regional Weather Roundup
Issued by NWS

Home | Current Version | Previous Version | Graphics & Text | Print | Product List | Glossary On
Versions: 1 2 3 4 5 6 7 8 9 10 11 12 13 14 15 16 17 18 19 20 21 22 23 24 25 26 27 28
000
ASUS45 KCYS 191810
RWRWY

WYOMING REGIONAL WEATHER ROUNDUP
NATIONAL WEATHER SERVICE CHEYENNE WY
1100 AM MST FRI JAN 19 2018

NOTE:  "FAIR" INDICATES FEW OR NO CLOUDS BELOW 12,000 FEET
WITH NO SIGNIFICANT WEATHER AND/OR OBSTRUCTIONS TO VISIBILITY.

WYZ001-191900-
YELLOWSTONE NATIONAL PARK

CITY           SKY/WX    TMP DP  RH WIND       PRES   REMARKS
LK YELLOWSTONE   N/A     27  25  92 VRB5      29.76F WCI  22
6HR MIN TEMP:  27; 6HR MAX TEMP:  30; 6HR PCP:  0.26;

W YELLOWSTONE  NOT AVBL

$$
WYZ002>013-054>058-071-098>099-191900-
NORTHERN WYOMING

CITY           SKY/WX    TMP DP  RH WIND       PRES   REMARKS
JACKSON        FLURRIES  33  30  88 S14       29.78R WCI  23
CODY           LGT RAIN  38  34  85 CALM      29.71F
GREYBULL       CLOUDY    36  29  75 CALM      29.73R
6HR MIN TEMP:  24; 6HR MAX TEMP:  36;

WORLAND        FAIR      34  28  79 NW3       29.72R
6HR MIN TEMP:  25; 6HR MAX TEMP:  41;

SHERIDAN       CLOUDY    39  35  86 CALM      29.74R
6HR MIN TEMP:  35; 6HR MAX TEMP:  39;

BUFFALO        CLOUDY    38  31  76 S6        29.73S WCI  33
6HR MIN TEMP:  34; 6HR MAX TEMP:  38;

GILLETTE       FAIR      37  30  75 SE7       29.72S WCI  32
6HR MIN TEMP:  33; 6HR MAX TEMP:  44;

HULETT         FAIR      37  32  81 S5        29.71F WCI  34
NEWCASTLE      FAIR      36  28  75 NW7       29.71F WCI  30

$$
WYZ014>020-022>026-101>103-191900-
CENTRAL WYOMING

CITY           SKY/WX    TMP DP  RH WIND       PRES   REMARKS
BIG PINEY      PTSUNNY   41  30  65 VRB3      29.79S
6HR MIN TEMP:  17; 6HR MAX TEMP:  42;

PINEDALE       MOCLDY    32  23  69 SE6       29.80F WCI  26
DUBOIS         CLOUDY    34  30  86 N10       29.71R WCI  26
LANDER         FAIR      48  29  47 SW20G30   29.67S
6HR MIN TEMP:  45; 6HR MAX TEMP:  49;

RIVERTON       FAIR      43  26  51 SW15      29.68F
6HR MIN TEMP:  23; 6HR MAX TEMP:  43;

CASPER         FAIR      48  21  34 SW23G30   29.73S
6HR MIN TEMP:  41; 6HR MAX TEMP:  48;

DOUGLAS        FAIR      55  24  30 NW5       29.72S
6HR MIN TEMP:  37; 6HR MAX TEMP:  55;


$$
WYZ021-027>030-104>119-191900-
SOUTHERN WYOMING

CITY           SKY/WX    TMP DP  RH WIND       PRES   REMARKS
EVANSTON       CLOUDY    44  28  53 SW22G37   29.84S
6HR MIN TEMP:  40; 6HR MAX TEMP:  44;

FORT BRIDGER   FAIR      51  26  37 W32G39    29.84S
ROCK SPRINGS   FAIR      46  22  38 S8        29.82F
6HR MIN TEMP:  32; 6HR MAX TEMP:  46;

DIXON            N/A     44  15  30 SW12G20   29.95S
RAWLINS        LGT RAIN  44  18  35 SW30G48   29.83R
6HR MIN TEMP:  40; 6HR MAX TEMP:  44; 6HR PCP: TRACE;

SARATOGA       FAIR      50  19  29 SW32G44   29.85S
LARAMIE        FAIR      49  19  30 SW29G36   29.83F
6HR MIN TEMP:  37; 6HR MAX TEMP:  49;

CHEYENNE       FAIR      53  19  26 W3        29.81F
6HR MIN TEMP:  44; 6HR MAX TEMP:  53;

TORRINGTON     FAIR      49  25  39 NW10      29.72F
6HR MIN TEMP:  35; 6HR MAX TEMP:  49;


$$




USA.gov is the U.S. government's official web portal to all federal, state and local government web resources and services.